| time (UTC) | temp F | wind direction | speed MPH | gust MPH | rain 1hr in | rain 24hr in | rain mn in | humidity % | barometer mb |
| 20260510215749 | 88 | 258 | 7.0 | 10.0 | 0.00 | 0.00 | 0.00 | 18 | |
| 20260510214749 | 89 | 340 | 0.0 | 1.0 | 0.00 | 0.00 | 0.00 | 18 | |
| 20260510213749 | 87 | 274 | 3.0 | 6.0 | 0.00 | 0.00 | 0.00 | 19 | |
| 20260510212748 | 87 | 277 | 1.0 | 6.0 | 0.00 | 0.00 | 0.00 | 18 | |
| 20260510211747 | 89 | 273 | 1.0 | 3.0 | 0.00 | 0.00 | 0.00 | 18 | |
| 20260510210745 | 89 | 214 | 3.0 | 6.0 | 0.00 | 0.00 | 0.00 | 18 | |
| 20260510205740 | 88 | 59 | 0.0 | 3.0 | 0.00 | 0.00 | 0.00 | 18 | |
| 20260510204738 | 88 | 69 | 6.0 | 11.0 | 0.00 | 0.00 | 0.00 | 18 | |
| 20260510203737 | 88 | 258 | 3.0 | 4.0 | 0.00 | 0.00 | 0.00 | 18 | |
| 20260510202734 | 87 | 179 | 4.0 | 6.0 | 0.00 | 0.00 | 0.00 | 19 | |
| 20260510201734 | 89 | 96 | 0.0 | 6.0 | 0.00 | 0.00 | 0.00 | 18 | |
| 20260510200733 | 89 | 232 | 6.0 | 14.0 | 0.00 | 0.00 | 0.00 | 18 | |
| 20260510195732 | 88 | 23 | 0.0 | 7.0 | 0.00 | 0.00 | 0.00 | 19 | |
| 20260510194728 | 88 | 71 | 0.0 | 9.0 | 0.00 | 0.00 | 0.00 | 19 | |
| 20260510193727 | 88 | 272 | 2.0 | 4.0 | 0.00 | 0.00 | 0.00 | 19 | |
| 20260510192723 | 87 | 222 | 2.0 | 9.0 | 0.00 | 0.00 | 0.00 | 19 | |
| 20260510191721 | 86 | 14 | 1.0 | 8.0 | 0.00 | 0.00 | 0.00 | 20 | |
| 20260510190721 | 87 | 54 | 0.0 | 0.0 | 0.00 | 0.00 | 0.00 | 19 | |
| 20260510185721 | 87 | 70 | 1.0 | 7.0 | 0.00 | 0.00 | 0.00 | 20 | |
| 20260510184721 | 86 | 207 | 4.0 | 10.0 | 0.00 | 0.00 | 0.00 | 20 | |
| 20260510183719 | 87 | 203 | 3.0 | 8.0 | 0.00 | 0.00 | 0.00 | 19 | |
| 20260510182717 | 86 | 142 | 2.0 | 4.0 | 0.00 | 0.00 | 0.00 | 20 | |
| 20260510181715 | 85 | 66 | 1.0 | 2.0 | 0.00 | 0.00 | 0.00 | 20 | |
| 20260510180714 | 83 | 1 | 3.0 | 7.0 | 0.00 | 0.00 | 0.00 | 21 | |
| 20260510175713 | 86 | 110 | 3.0 | 10.0 | 0.00 | 0.00 | 0.00 | 20 | |
| 20260510174713 | 83 | 135 | 2.0 | 4.0 | 0.00 | 0.00 | 0.00 | 22 | |
| 20260510173712 | 83 | 82 | 2.0 | 7.0 | 0.00 | 0.00 | 0.00 | 22 | |
| 20260510172709 | 82 | 64 | 1.0 | 3.0 | 0.00 | 0.00 | 0.00 | 22 | |
| 20260510171708 | 82 | 78 | 0.0 | 4.0 | 0.00 | 0.00 | 0.00 | 22 | |
| 20260510170703 | 81 | 88 | 0.0 | 3.0 | 0.00 | 0.00 | 0.00 | 23 | |
| 20260510165701 | 83 | 171 | 0.0 | 1.0 | 0.00 | 0.00 | 0.00 | 22 | |
| 20260510164701 | 81 | 82 | 0.0 | 1.0 | 0.00 | 0.00 | 0.00 | 24 | |
| 20260510163658 | 80 | 116 | 2.0 | 3.0 | 0.00 | 0.00 | 0.00 | 24 | |
| 20260510162654 | 79 | 120 | 1.0 | 7.0 | 0.00 | 0.00 | 0.00 | 25 | |
| 20260510161652 | 78 | 94 | 3.0 | 4.0 | 0.00 | 0.00 | 0.00 | 26 | |
| 20260510160652 | 79 | 66 | 3.0 | 4.0 | 0.00 | 0.00 | 0.00 | 26 | |
| 20260510155649 | 77 | 52 | 0.0 | 4.0 | 0.00 | 0.00 | 0.00 | 28 | |
| 20260510154646 | 78 | 72 | 0.0 | 1.0 | 0.00 | 0.00 | 0.00 | 27 | |
| 20260510153643 | 78 | 222 | 1.0 | 2.0 | 0.00 | 0.00 | 0.00 | 28 | |
| 20260510152641 | 75 | 111 | 0.0 | 4.0 | 0.00 | 0.00 | 0.00 | 30 | |
| 20260510151640 | 76 | 71 | 0.0 | 0.0 | 0.00 | 0.00 | 0.00 | 28 | |
| 20260510150640 | 74 | 91 | 0.0 | 2.0 | 0.00 | 0.00 | 0.00 | 30 | |
| 20260510145637 | 75 | 64 | 0.0 | 2.0 | 0.00 | 0.00 | 0.00 | 30 | |
| 20260510144635 | 73 | 66 | 0.0 | 1.0 | 0.00 | 0.00 | 0.00 | 32 | |
| 20260510143633 | 74 | 78 | 0.0 | 0.0 | 0.00 | 0.00 | 0.00 | 31 | |
| 20260510142632 | 71 | 74 | 0.0 | 0.0 | 0.00 | 0.00 | 0.00 | 32 | |
| 20260510141631 | 70 | 80 | 0.0 | 0.0 | 0.00 | 0.00 | 0.00 | 33 | |
| 20260510140626 | 67 | 69 | 0.0 | 0.0 | 0.00 | 0.00 | 0.00 | 36 | |
| 20260510135626 | 65 | 64 | 0.0 | 0.0 | 0.00 | 0.00 | 0.00 | 38 | |
| 20260510134626 | 64 | 71 | 0.0 | 0.0 | 0.00 | 0.00 | 0.00 | 38 | |
| 20260510133625 | 62 | 46 | 0.0 | 0.0 | 0.00 | 0.00 | 0.00 | 40 | |
| 20260510132623 | 62 | 62 | 0.0 | 0.0 | 0.00 | 0.00 | 0.00 | 39 | |
| 20260510131624 | 62 | 70 | 0.0 | 0.0 | 0.00 | 0.00 | 0.00 | 39 | |
| 20260510130623 | 58 | 65 | 0.0 | 0.0 | 0.00 | 0.00 | 0.00 | 43 | |
| 20260510125623 | 58 | 60 | 0.0 | 0.0 | 0.00 | 0.00 | 0.00 | 44 | |
| 20260510124622 | 57 | 63 | 0.0 | 0.0 | 0.00 | 0.00 | 0.00 | 44 | |
| 20260510123620 | 57 | 44 | 0.0 | 0.0 | 0.00 | 0.00 | 0.00 | 44 | |
| 20260510122618 | 57 | 65 | 0.0 | 0.0 | 0.00 | 0.00 | 0.00 | 44 | |
| 20260510121617 | 57 | 37 | 0.0 | 0.0 | 0.00 | 0.00 | 0.00 | 44 | |
| 20260510120613 | 56 | 68 | 0.0 | 0.0 | 0.00 | 0.00 | 0.00 | 44 | |
| 20260510115610 | 57 | 72 | 0.0 | 0.0 | 0.00 | 0.00 | 0.00 | 43 | |
| 20260510114609 | 57 | 67 | 0.0 | 0.0 | 0.00 | 0.00 | 0.00 | 43 | |
| 20260510113607 | 58 | 61 | 0.0 | 0.0 | 0.00 | 0.00 | 0.00 | 42 | |
| 20260510112607 | 58 | 43 | 0.0 | 0.0 | 0.00 | 0.00 | 0.00 | 42 | |
| 20260510111606 | 59 | 59 | 0.0 | 0.0 | 0.00 | 0.00 | 0.00 | 41 | |
| 20260510110604 | 60 | 54 | 0.0 | 0.0 | 0.00 | 0.00 | 0.00 | 40 | |
| 20260510105602 | 60 | 61 | 0.0 | 0.0 | 0.00 | 0.00 | 0.00 | 40 | |
| 20260510104600 | 61 | 59 | 0.0 | 0.0 | 0.00 | 0.00 | 0.00 | 40 | |
| 20260510103559 | 61 | 58 | 0.0 | 0.0 | 0.00 | 0.00 | 0.00 | 40 | |
| 20260510102556 | 61 | 64 | 0.0 | 0.0 | 0.00 | 0.00 | 0.00 | 39 | |
| 20260510101557 | 62 | 55 | 0.0 | 0.0 | 0.00 | 0.00 | 0.00 | 38 | |
| 20260510100556 | 62 | 59 | 0.0 | 0.0 | 0.00 | 0.00 | 0.00 | 38 | |
| 20260510095555 | 62 | 43 | 0.0 | 0.0 | 0.00 | 0.00 | 0.00 | 38 | |
| 20260510094555 | 63 | 59 | 0.0 | 0.0 | 0.00 | 0.00 | 0.00 | 38 | |
| 20260510093553 | 63 | 46 | 0.0 | 0.0 | 0.00 | 0.00 | 0.00 | 38 | |
| 20260510092552 | 64 | 63 | 0.0 | 0.0 | 0.00 | 0.00 | 0.00 | 37 | |
| 20260510091549 | 64 | 62 | 0.0 | 0.0 | 0.00 | 0.00 | 0.00 | 38 | |
| 20260510090547 | 63 | 71 | 0.0 | 0.0 | 0.00 | 0.00 | 0.00 | 39 | |
| 20260510085544 | 64 | 67 | 0.0 | 0.0 | 0.00 | 0.00 | 0.00 | 39 | |
| 20260510084542 | 64 | 71 | 0.0 | 0.0 | 0.00 | 0.00 | 0.00 | 38 | |
| 20260510083541 | 64 | 71 | 0.0 | 0.0 | 0.00 | 0.00 | 0.00 | 38 | |
| 20260510082540 | 64 | 90 | 0.0 | 0.0 | 0.00 | 0.00 | 0.00 | 38 | |
| 20260510081537 | 66 | 71 | 0.0 | 0.0 | 0.00 | 0.00 | 0.00 | 36 | |
| 20260510080538 | 65 | 76 | 0.0 | 0.0 | 0.00 | 0.00 | 0.00 | 36 | |
| 20260510075532 | 66 | 74 | 0.0 | 0.0 | 0.00 | 0.00 | 0.00 | 36 | |
| 20260510074527 | 66 | 73 | 0.0 | 0.0 | 0.00 | 0.00 | 0.00 | 35 | |
| 20260510073524 | 66 | 75 | 0.0 | 0.0 | 0.00 | 0.00 | 0.00 | 36 | |
| 20260510072524 | 66 | 69 | 0.0 | 0.0 | 0.00 | 0.00 | 0.00 | 36 | |
| 20260510071521 | 67 | 77 | 0.0 | 0.0 | 0.00 | 0.00 | 0.00 | 35 | |
| 20260510070516 | 67 | 65 | 0.0 | 0.0 | 0.00 | 0.00 | 0.00 | 34 | |
| 20260510065515 | 68 | 72 | 0.0 | 0.0 | 0.00 | 0.00 | 0.00 | 34 | |
| 20260510064514 | 68 | 65 | 0.0 | 0.0 | 0.00 | 0.00 | 0.00 | 34 | |
| 20260510063513 | 68 | 65 | 0.0 | 0.0 | 0.00 | 0.00 | 0.00 | 34 | |
| 20260510062512 | 69 | 110 | 0.0 | 0.0 | 0.00 | 0.00 | 0.00 | 32 | |
| 20260510061510 | 69 | 109 | 0.0 | 0.0 | 0.00 | 0.00 | 0.00 | 32 | |
| 20260510060509 | 69 | 102 | 0.0 | 0.0 | 0.00 | 0.00 | 0.00 | 32 | |
| 20260510055507 | 69 | 77 | 0.0 | 0.0 | 0.00 | 0.00 | 0.00 | 32 | |
| 20260510054507 | 69 | 102 | 0.0 | 0.0 | 0.00 | 0.00 | 0.00 | 32 | |
| 20260510053502 | 69 | 104 | 0.0 | 0.0 | 0.00 | 0.00 | 0.00 | 32 | |
| 20260510052502 | 70 | 78 | 0.0 | 0.0 | 0.00 | 0.00 | 0.00 | 31 | |
| 20260510051459 | 71 | 79 | 0.0 | 0.0 | 0.00 | 0.00 | 0.00 | 30 | |
| 20260510050454 | 72 | 103 | 0.0 | 0.0 | 0.00 | 0.00 | 0.00 | 29 | |
| 20260510045454 | 72 | 76 | 0.0 | 1.0 | 0.00 | 0.00 | 0.00 | 28 | |
| 20260510044452 | 73 | 111 | 0.0 | 0.0 | 0.00 | 0.00 | 0.00 | 28 | |
| 20260510043451 | 73 | 89 | 0.0 | 0.0 | 0.00 | 0.00 | 0.00 | 27 | |
| 20260510042451 | 74 | 23 | 0.0 | 0.0 | 0.00 | 0.00 | 0.00 | 27 | |
| 20260510041449 | 74 | 102 | 0.0 | 0.0 | 0.00 | 0.00 | 0.00 | 27 | |
| 20260510040449 | 75 | 70 | 0.0 | 0.0 | 0.00 | 0.00 | 0.00 | 27 | |
| 20260510035448 | 76 | 69 | 0.0 | 0.0 | 0.00 | 0.00 | 0.00 | 26 | |
| 20260510034447 | 77 | 161 | 2.0 | 4.0 | 0.00 | 0.00 | 0.00 | 25 | |
| 20260510033444 | 75 | 147 | 1.0 | 6.0 | 0.00 | 0.00 | 0.00 | 26 | |
| 20260510032445 | 75 | 65 | 0.0 | 0.0 | 0.00 | 0.00 | 0.00 | 27 | |
| 20260510031440 | 76 | 73 | 0.0 | 0.0 | 0.00 | 0.00 | 0.00 | 27 | |
| 20260510030437 | 76 | 85 | 0.0 | 0.0 | 0.00 | 0.00 | 0.00 | 26 | |
| 20260510025432 | 77 | 76 | 0.0 | 0.0 | 0.00 | 0.00 | 0.00 | 26 | |
| 20260510024432 | 77 | 79 | 0.0 | 1.0 | 0.00 | 0.00 | 0.00 | 25 | |
| 20260510023430 | 77 | 59 | 0.0 | 0.0 | 0.00 | 0.00 | 0.00 | 24 | |
| 20260510022427 | 78 | 257 | 3.0 | 3.0 | 0.00 | 0.00 | 0.00 | 24 | |
| 20260510021424 | 78 | 106 | 0.0 | 2.0 | 0.00 | 0.00 | 0.00 | 23 | |
| 20260510020421 | 79 | 299 | 1.0 | 2.0 | 0.00 | 0.00 | 0.00 | 22 | |
| 20260510015418 | 80 | 302 | 4.0 | 6.0 | 0.00 | 0.00 | 0.00 | 22 | |
| 20260510014417 | 80 | 257 | 5.0 | 9.0 | 0.00 | 0.00 | 0.00 | 21 | |
| 20260510013414 | 81 | 263 | 1.0 | 2.0 | 0.00 | 0.00 | 0.00 | 21 | |
| 20260510012411 | 82 | 100 | 0.0 | 1.0 | 0.00 | 0.00 | 0.00 | 20 | |
| 20260510011407 | 82 | 208 | 1.0 | 4.0 | 0.00 | 0.00 | 0.00 | 20 | |
| 20260510010407 | 83 | 245 | 3.0 | 7.0 | 0.00 | 0.00 | 0.00 | 20 | |
| 20260510005406 | 83 | 159 | 2.0 | 7.0 | 0.00 | 0.00 | 0.00 | 19 | |
| 20260510004401 | 83 | 222 | 2.0 | 4.0 | 0.00 | 0.00 | 0.00 | 19 | |
| 20260510003355 | 84 | 75 | 3.0 | 6.0 | 0.00 | 0.00 | 0.00 | 19 | |
| 20260510002351 | 84 | 220 | 1.0 | 6.0 | 0.00 | 0.00 | 0.00 | 19 | |
| 20260510001346 | 85 | 178 | 3.0 | 6.0 | 0.00 | 0.00 | 0.00 | 19 | |
| 20260510000345 | 85 | 154 | 0.0 | 3.0 | 0.00 | 0.00 | 0.00 | 19 | |
| 20260509235344 | 85 | 206 | 2.0 | 6.0 | 0.00 | 0.00 | 0.00 | 18 | |
| 20260509234343 | 86 | 263 | 5.0 | 7.0 | 0.00 | 0.00 | 0.00 | 18 | |
| 20260509233339 | 86 | 135 | 3.0 | 7.0 | 0.00 | 0.00 | 0.00 | 19 | |
| 20260509232338 | 86 | 184 | 7.0 | 13.0 | 0.00 | 0.00 | 0.00 | 19 | |
| 20260509231337 | 88 | 250 | 5.0 | 10.0 | 0.00 | 0.00 | 0.00 | 18 | |
| 20260509230337 | 87 | 26 | 0.0 | 3.0 | 0.00 | 0.00 | 0.00 | 19 | |
| 20260509225336 | 86 | 132 | 5.0 | 11.0 | 0.00 | 0.00 | 0.00 | 20 | |
| 20260509224333 | 86 | 227 | 2.0 | 4.0 | 0.00 | 0.00 | 0.00 | 19 | |
| 20260509223333 | 87 | 52 | 5.0 | 10.0 | 0.00 | 0.00 | 0.00 | 19 | |
| 20260509222331 | 87 | 184 | 6.0 | 10.0 | 0.00 | 0.00 | 0.00 | 19 | |
| 20260509221330 | 87 | 197 | 4.0 | 11.0 | 0.00 | 0.00 | 0.00 | 19 |